Retour au catalogue

SL-14 DEB

ActifPO
NORAD 45309·DEBRIS·🇷🇺 Russia

Lancé Aug 15, 1991 depuis Plesetsk Cosmodrome

Loading…

Prochains Passages (prochaines 24 heures)

TLE

FraisSource: Space-Track

Époque: Sep 13, 2026, 14:05 UTC

1 45309U 91056AX  26256.58688808  .00004248  00000-0  93676-2 0  9995
2 45309  82.6198 100.6889 0110390 127.4590 233.6641 13.25653018315379

Suivez SL-14 DEB en temps réel avec AllMySat

Download on the App Store